OPS 4682 DEB, 18670

Orbit data source: Space-Track

OPS 4682 DEB, 18670 is space debris in LEO originally from a launch on Sat, 03 Apr 1965 UTC launched from the Air Force Western Test Range (AFWTR). Debris objects in space refer to the collection of defunct objects orbiting the Earth. Examples of debris include non-operational satellites, rocket bodies, and fragments generated from explosions, collisions, or faulty payload assembly.

Loading next visibility...
Identifier
18670, 1965-027AG
Orbit
LEO
Country
Flag of USUS
Related business
Manufacturer
Unknown
Mission
Spacecraft
Bus & Motor
Unknown
Mass
Unknown
Launch date (UTC)
1965-04-03 (61 years ago)
Launch vehicle
Unknown
Launch site
Air Force Western Test Range (AFWTR)
Object type
Payload
Rocket body
Debris
Shape & HBR
Unknown shape, 0.1 m
Radar Cross Section
Medium (>0.1 m² and <1 m²)

Expand to show TLE details & history
Last TLE update: 12 hours ago

TLE from 12 hours ago
0 OPS 4682 DEB
1 18670U 65027AG  26150.02553301  .00000661  00000-0  22551-2 0  9995
2 18670  90.2352 355.9195 0024929 179.8250 180.2884 12.97234900660415
Epoch: 2026-05-30T00:36Z
TLE epoch observation values (Epoch: 2026-05-30T00:36:46.052Z)
Latitude
0.00006°
Longitude
99.18013°
Altitude
1,294.896 km
Speed
7.2 km/s
True Right ascension
23h 43m 40s
True Declination
0° 00' 00"
Sunlit
Object was in daylight at epoch
Visualization orbit readout
Latitude
Unknown
Longitude
Unknown
Altitude
Unknown
Speed
Unknown
Apparent Right ascension
Unknown
Apparent Declination
Unknown
Sunlit
N/A
Visualization observer readout
Local Sidereal Time
22:06:44
Azimuth
Unknown
Elevation
Unknown
Doppler factor
Unknown
Orbital elements
Apogee altitude
1,289.137 km
Perigee altitude
1,251.005 km
Semi-major axis
7,648.208 km
Eccentricity
0.00249
Inclination
90.2352°
RAAN
355.9195°
Arg. of periapsis
179.825°
True anomaly
180.28697°
Mean anomaly
180.2884°
Eccentric anomaly
180.28768°
Mean motion
3.24492 °/min
Orbital period
110.94 mins
BSTAR
0.0022551
Loading maneuver chart data...
Computing Atmospheric mass density...
Loading historical data...
Loading historical data...
Loading historical data...
Loading historical data...
Loading historical data...
Loading historical data...
Loading historical data...

Documentation

Showing up to 5 results
|